Regional Weather Roundup
Issued by NWS

Home | Current Version | Previous Version | Graphics & Text | Print | Product List | Glossary On
Versions: 1 2 3 4 5 6 7 8 9 10 11 12 13 14 15 16 17 18 19 20 21 22 23 24 25 26 27 28 29 30 31 32 33 34 35 36 37 38 39 40 41 42 43 44 45 46 47 48 49 50
048
ASUS45 KPSR 200710
RWRAZ

ARIZONA HOURLY REGIONAL WEATHER ROUNDUP
NATIONAL WEATHER SERVICE PHOENIX AZ
1200 AM MST MON NOV 20 2017

NOTE: FAIR INDICATES FEW OR NO CLOUDS BELOW 12,000 FEET WITH NO
SIGNIFICANT WEATHER AND/OR OBSTRUCTIONS TO VISIBILITY.

AZZ001>003-036-200800-
NORTHWEST ARIZONA

CITY           SKY/WX    TMP DP  RH WIND       PRES   REMARKS
BULLHEAD CITY  PTCLDY    55  28  35 N6        30.05S
KINGMAN        PTCLDY    32   4  30 CALM      30.11F
$$

AZZ004>008-015-016-018-200800-
NORTH CENTRAL ARIZONA

CITY           SKY/WX    TMP DP  RH WIND       PRES   REMARKS
GRAND CANYON   PTCLDY    17  -2  43 CALM      30.21F
WILLIAMS       MOCLDY    27   9  46 S10       30.21S WCI  17
PRESCOTT       MOCLDY    37  14  38 S7        30.16R WCI  32
FLAGSTAFF      CLEAR     21   2  43 CALM      30.21F
PAYSON         CLEAR     46  12  25 E5        30.17F
PAGE           MOCLDY    35  10  35 SE6       30.18F WCI  30
$$

AZZ009>014-017-200800-
NORTHEAST ARIZONA

CITY           SKY/WX    TMP DP  RH WIND       PRES   REMARKS
WINSLOW        MOCLDY    26   2  35 CALM      30.20F
SAINT JOHNS    MOCLDY    32   7  35 S5        30.19S WCI  27
WINDOW ROCK    PTCLDY    18   1  47 CALM      30.22S
SHOW LOW       PTCLDY    25   5  42 S5        30.22S WCI  19
$$

AZZ540-542>544-546-548-200800-
GREATER PHOENIX AREA

CITY           SKY/WX    TMP DP  RH WIND       PRES   REMARKS
PHOENIX        PTCLDY    59  31  34 SW6       29.98S
BUCKEYE        CLEAR     54  10  17 NE7       30.00S
LUKE AFB       CLEAR     57  21  25 N5        29.98S
DEER VALLEY    CLEAR     62  16  16 VRB3      30.00S
SCOTTSDALE     CLEAR     55  27  34 CALM      30.00F
MESA-GATEWAY   PTCLDY    52  19  28 CALM      30.01R
$$

AZZ539-553-200800-
SOUTHWEST MARICOPA COUNTY AND PINAL COUNTY

CITY           SKY/WX    TMP DP  RH WIND       PRES   REMARKS
CASA GRANDE    NOT AVBL
$$

AZZ503-504-507>509-200800-
SOUTHEAST ARIZONA

CITY           SKY/WX    TMP DP  RH WIND       PRES   REMARKS
TUCSON         CLEAR     60  23  24 SE8       30.05F
DAVIS-MONTHAN  CLEAR     56  22  27 SE8       30.03F
NOGALES        CLEAR     46  25  43 E8        30.08F
SIERRA VISTA   CLEAR     45  23  41 CALM      30.13F
DOUGLAS        CLEAR     43  22  43 N10       30.12F
SAFFORD        CLEAR     49  14  24 SE9       30.10F
$$

AZZ532-200800-
SOUTHWEST ARIZONA

CITY           SKY/WX    TMP DP  RH WIND       PRES   REMARKS
YUMA           PTCLDY    60  12  15 N3        29.98S
$$

CAZ041-043-047-048-061-525>527-560>570-200800-
SOUTHERN CALIFORNIA

CITY           SKY/WX    TMP DP  RH WIND       PRES   REMARKS
DOWNTOWN L.A.  CLEAR     58  50  75 E5        30.00F
L.A. AIRPORT   CLEAR     57  53  86 E6        30.00F
SAN DIEGO      PTCLDY    58  48  69 CALM      30.03F
BURBANK        CLEAR     54  30  40 CALM      30.00F
ONTARIO        PTCLDY    55  30  38 CALM      30.02S
RIVERSIDE      CLEAR     53  38  56 SE3       30.02F
PALM SPRINGS   PTCLDY    59  18  20 NW8       30.02F
EL CENTRO NAS  PTCLDY    49  13  23 W8        30.02R
IMPERIAL       PTCLDY    52  20  28 W7        30.00R
BLYTHE         PTCLDY    53   7  15 NW6       30.02S
NEEDLES        PTCLDY    58   6  12 NW12      30.05R
$$

NVZ020-UTZ003-200800-
SOUTHERN NEVADA-UTAH

CITY           SKY/WX    TMP DP  RH WIND       PRES   REMARKS
LAS VEGAS      CLOUDY    48   9  20 S5        30.07F
SALT LAKE CITY CLOUDY    34  30  85 SW3       30.09F
$$

NMZ009-TXZ055-200800-
NEW MEXICO-WEST TEXAS

CITY           SKY/WX    TMP DP  RH WIND       PRES   REMARKS
ALBUQUERQUE    CLOUDY    36   6  28 W6        30.18F WCI  31
EL PASO        CLEAR     46  18  32 N8        30.15S
$$


........................KEY........................
SKY/WX - SKY CONDITION/WEATHER
TMP    - TEMPERATURE IN FAHRENHEIT
DP     - DEW POINT IN FAHRENHEIT
RH     - RELATIVE HUMIDITY IN PERCENT
WIND   - DIRECTION AND SPEED IN MILES PER HOUR (MPH)
VRB    - VARIABLE WIND DIRECTION
PRES   - MEAN SEA LEVEL PRESSURE IN INCHES OF MERCURY
         F - FALLING PRESSURE   R - RISING PRESSURE
         S - STEADY PRESSURE
VSB    - VISIBILITY IN MILES
HX     - HEAT INDEX IN FAHRENHEIT
WCI    - WIND CHILL INDEX IN FAHRENHEIT
TC     - TEMPERATURE IN CELSIUS WHICH IS ALSO KNOWN AS
         TEMPERATURE IN CENTIGRADE
AFB    - AIR FORCE BASE
         LUKE AFB IS LUKE AIR FORCE BASE
         DAVIS-MONTHAN IS DAVIS-MONTHAN AIR FORCE BASE
NAS    - NAVAL AIR STATION
         EL CENTRO NAS IS EL CENTRO NAVAL AIR STATION
N/A    - NOT AVAILABLE





USA.gov is the U.S. government's official web portal to all federal, state and local government web resources and services.